OpenBCM V2.0.2 (Linux)

Packet Radio Mailbox

IZ3LSV

[San Dona' di P. JN]

 Login: GUEST





  
LU1HVK > KEPLER   10.01.20 18:03l 243 Lines 12025 Bytes #999 (0) @ WW
BID : 38748_LU1HVK
Read: GUEST
Subj: TLE 05 11
Path: IZ3LSV<IW0QNL<OK0NBR<OK2PEN<N3HYM<XE1FH<LU3DVN<LU1HVK
Sent: 200110/1556Z 38748@LU1HVK.2594.CBA.ARG.SA LinBPQ6.0.19

                         _    _   _ _ _   ___     ___  __
                        | |  | | | / | | | \ \   / / |/ /
                        | |  | | | | | |_| |\ \ / /| ' /
                        | |__| |_| | |  _  | \ V / | . \
                        |_____\___/|_|_| |_|  \_/  |_|\_\

     BBS/NODO - CORDOBA (LEONES-FF87UH) - LU1HVK-4 NODO - LU1HVK-3 APRS

+----------------------------------------------------------------------------+
OSCAR 7
1  7530U 74089B   19308.16317198 -.00000028  00000-0  10657-3 0  9993
2  7530 101.7649 274.4960 0012508  79.5385 348.4274 12.53640559 57879
OSCAR 11 (UoSAT 2)
1 14781U 84021B   19308.14391827  .00000053  00000-0  12608-4 0  9991
2 14781  97.6032 326.2542 0007523 216.8158 143.2541 14.83117311919281
OSCAR 19 (LUSAT)
1 20442U 90005G   19308.41519858  .00000020  00000-0  23615-4 0  9991
2 20442  98.6625 250.2608 0012872  99.5331 260.7308 14.32936870556244
EYESAT A
1 22825U 93061C   19307.75361538 -.00000001 +00000-0 +17513-4 0  9999
2 22825 098.9148 299.6160 0007768 323.0602 037.0044 14.30070105361411
ITAMSAT
1 22826U 93061D   19307.93294358 +.00000010 +00000-0 +21692-4 0  9997
2 22826 098.9088 299.7738 0008130 309.8509 050.1957 14.30404415361660
RADIO ROSTO
1 23439U 94085A   19307.87315088 -.00000040 +00000-0 +60780-4 0  9997
2 23439 064.8156 252.6636 0145325 086.2064 275.5462 11.27568547023472
JAS 2
1 24278U 96046B   19308.04678379 -.00000001  00000-0  37605-4 0  9990
2 24278  98.5587  82.8256 0349502 241.2660 115.2947 13.53094446146517
TECHSAT 1B
1 25397U 98043D   19307.86178310 -.00000001 +00000-0 +18854-4 0  9996
2 25397 098.7012 246.3986 0001697 037.3351 322.7945 14.23673504107317
ISS (ZARYA)
1 25544U 98067A   19309.06633473 -.00001318  00000-0 -14906-4 0  9993
2 25544  51.6444  22.7523 0005892 231.3131 198.0869 15.50249554197115
PCSAT
1 26931U 01043C   19308.69944303 -.00000038  00000-0  17392-4 0  9996
2 26931  67.0528   4.9707 0007472 266.4840  93.5407 14.30557450944850
SAUDISAT 1C
1 27607U 02058C   19308.48365099 -.00000000  00000-0  20802-4 0  9999
2 27607  64.5557 345.2548 0073488 229.4544 130.0145 14.75585824907512
CUTE-1
1 27844U 03031E   19308.32024611  .00000051  00000-0  42627-4 0  9993
2 27844  98.6850 314.4661 0009722 356.4202   3.6905 14.22203143847992
CUBESAT XI 4
1 27848U 03031J   19308.00010413  .00000041  00000-0  38694-4 0  9995
2 27848  98.6923 314.6783 0009851   9.3550 350.7809 14.21795083847792
MOZHAYETS 4
1 27939U 03042A   19308.73233815  .00000095  00000-0  25562-4 0  9990
2 27939  98.0609  82.0046 0012579 353.7719   6.3333 14.66814364860929
CUBESAT XI 5
1 28895U 05043F   19308.35080650  .00000152  00000-0  37988-4 0  9999
2 28895  97.9793  86.4969 0015479 274.1462  85.7971 14.63706792747765
CUTE-1.7+APD II
1 32785U 08021C   19308.44972653  .00000213  00000-0  28553-4 0  9990
2 32785  97.5577 301.6760 0013580 156.6105 203.5733 14.88368015624325
DELFI C3
1 32789U 08021G   19308.11928195  .00000905  00000-0  64030-4 0  9998
2 32789  97.4493 353.5111 0012409  19.4279 340.7419 15.07227806627814
SEEDS
1 32791U 08021J   19307.96535379  .00000344  00000-0  40190-4 0  9999
2 32791  97.5322 307.3062 0014397 132.9806 227.2623 14.90901469624713
YUBELEINY
1 32953U 08025A   19308.80116881  .00000020  00000-0  75656-4 0  9996
2 32953  82.5049  58.2427 0019655 183.5138 176.5808 12.43091981519597
PRISM (HITOMI)
1 33493U 09002B   19308.45161268  .00000176  00000-0  20883-4 0  9996
2 33493  98.1243 234.6797 0016257  83.3192 276.9878 14.96787275585906
KKS-1 (KISEKI)
1 33499U 09002H   19308.15551083  .00000073  00000-0  18717-4 0  9996
2 33499  98.3383 151.2190 0010174 121.5838 238.6365 14.75475473579645
SWISSCUBE
1 35932U 09051B   19308.45411232  .00000144  00000-0  43579-4 0  9991
2 35932  98.5995 118.6068 0008698  99.2942 260.9239 14.56325376536978
BEESAT
1 35933U 09051C   19308.44881560  .00000117  00000-0  37445-4 0  9991
2 35933  98.6010 120.4157 0006847 110.0288 250.1647 14.56409326537082
ITUPSAT 1
1 35935U 09051E   19307.89931259 +.00000085 +00000-0 +30608-4 0  9990
2 35935 098.6119 120.0757 0009166 110.4068 249.8114 14.55563572536719
XIWANG-1 (HOPE-1)
1 36122U 09072B   19308.44418531 -.00000051  00000-0 -23315-4 0  9999
2 36122 100.0794 304.3325 0007733  29.5985 330.5566 13.16351661475136
TISAT 1
1 36799U 10035E   19308.72097688  .00000509  00000-0  57374-4 0  9995
2 36799  98.1727 105.6478 0012071 356.2539   3.8586 14.91193952505481
JUGNU
1 37839U 11058B   19308.88656753  .00000305  00000-0  21023-4 0  9994
2 37839  19.9602 210.6769 0018946  62.0636 357.2174 14.12663441416968
SRMSAT
1 37841U 11058D   19308.30403060  .00000310  00000-0  25311-4 0  9995
2 37841  19.9721 273.8544 0011637 279.3466 227.8364 14.10642311416288
M-CUBED/EXP-1 PRIME
1 37855U 11061F   19308.36246640  .00001862  00000-0  99827-4 0  9995
2 37855 101.7204 275.1756 0172870  25.6882 335.2792 15.05729292437641
HORYU 2
1 38340U 12025D   19308.77548929  .00000160  00000-0  31299-4 0  9995
2 38340  98.3143 351.4326 0012291  46.0568 314.1652 14.75769331401672
STRAND 1
1 39090U 13009E   19308.53274506  .00000037  00000-0  28177-4 0  9996
2 39090  98.4737 152.0795 0008185 232.8521 127.1918 14.35103612350301
SOMP
1 39134U 13015E   19308.42273023  .00001534  00000-0  78189-4 0  9994
2 39134  64.8624 290.8835 0037321 281.0319  78.6612 15.20463289361681
BEESAT 3
1 39135U 13015F   19308.46121727  .00001027  00000-0  59780-4 0  9995
2 39135  64.8669 311.0300 0038911 286.5302  73.1551 15.17703109361307
BEESAT 2
1 39136U 13015G   19308.48528210  .00000993  00000-0  59400-4 0  9996
2 39136  64.8680 315.1794 0029892 291.3594  68.4342 15.17117932361227
CUBEBUG 1
1 39153U 13018D   19308.50865420  .00000214  00000-0  34744-4 0  9998
2 39153  97.9815  45.8782 0018283 107.7743 252.5465 14.80618482352356
ZACUBE
1 39417U 13066B   19307.85914283  .00000216  00000-0  33618-4 0  9994
2 39417  97.5623 313.5945 0057634 301.7797  57.7810 14.81172037321498
TRITON 1
1 39427U 13066M   19308.44872313  .00000223  00000-0  43204-4 0  9998
2 39427  97.6947 277.3822 0115209  81.3307 280.0930 14.67899672318698
GOMX 1
1 39430U 13066Q   19308.74780336  .00000154  00000-0  36780-4 0  9992
2 39430  97.7630 256.2541 0150954 175.3236 184.9422 14.59303531316889
HUMSAT D
1 39433U 13066T   19307.68052799  .00000511  00000-0  54943-4 0  9990
2 39433  97.5380 349.4371 0030358 197.5383 162.4791 14.92289784323655
CUBEBUG 2
1 39440U 13066AA  19308.46516592  .00000251  00000-0  41841-4 0  9995
2 39440  97.6117 298.7730 0080121 355.2551   4.7891 14.75910053320444
FUNCUBE 1
1 39444U 13066AE  19307.98552287  .00000263  00000-0  38704-4 0  9993
2 39444  97.5591 315.7875 0056652 294.4638  65.0673 14.82002699320416
UWE-3
1 39446U 13066AG  19307.96084204  .00000226  00000-0  36643-4 0  9991
2 39446  97.5863 305.4496 0069279 329.9700  29.7546 14.78444613319693
SPROUT
1 39770U 14029E   19308.28022577  .00000924  00000-0  10801-3 0  9994
2 39770  97.8895  50.7251 0008972 358.0854   2.0312 14.87489212295430
UNISAT 6
1 40012U 14033C   19308.76979941  .00000168  00000-0  32310-4 0  9999
2 40012  97.7362 169.2458 0058715  10.4565 349.7850 14.74027410289178
DUCHIFAT 1
1 40021U 14033M   19307.82200533  .00000503  00000-0  57093-4 0  9997
2 40021  97.9270 232.8847 0012085 320.2708  39.7623 14.90725051292125
QB50P1
1 40025U 14033R   19308.47161651  .00000310  00000-0  38915-4 0  9998
2 40025  97.9056 227.9192 0011735 329.0850  30.9675 14.89012652291971
CHUBUSAT 1
1 40300U 14070C   19308.16108282  .00000809  00000-0  38073-4 0  9990
2 40300  97.3147  18.7606 0018867 291.8237  98.2618 15.22234454277080
NUDT-PHONESAT
1 40900U 15049B   19308.80845112  .00002243  00000-0  97544-4 0  9996
2 40900  97.4365 316.8097 0014235  59.9755  65.2074 15.23230469228830
ZDPS 2A
1 40901U 15049C   19308.78775669  .00000727  00000-0  39120-4 0  9994
2 40901  97.4618 312.6283 0015086  79.7550  42.8942 15.17909300228331
ZDPS 2B
1 40902U 15049D   19308.74904282  .00001145  00000-0  59856-4 0  9999
2 40902  97.4578 309.9745 0015054  77.8327 336.4749 15.17789416228303
XW-2A
1 40903U 15049E   19308.78061485  .00001831  00000-0  44463-4 0  9993
2 40903  97.3213 352.2368 0013714   9.4663 102.0381 15.42277264231681
KAITUO 1A
1 40904U 15049F   19308.73166067  .00000884  00000-0  50077-4 0  9996
2 40904  97.4715 308.4007 0016388  86.4373  28.1816 15.15489249228052
OBJECT G
1 40905U 15049G   19308.45619378  .00000423  00000-0  26542-4 0  9993
2 40905  97.4764 305.5387 0017364  83.3982  71.0399 15.14381174227872
XW-2C
1 40906U 15049H   19308.70321882  .00000414  00000-0  25109-4 0  9990
2 40906  97.4724 308.5211 0016378  78.4885  34.2120 15.15807132228051
XW-2D
1 40907U 15049J   19308.72956850  .00000873  00000-0  48765-4 0  9994
2 40907  97.4699 308.2309 0015812  75.8062  38.9094 15.16010280228072
LILACSAT 2
1 40908U 15049K   19308.80497862  .00000623  00000-0  37914-4 0  9994
2 40908  97.4839 306.9692 0017522  82.4198  41.8877 15.13884548227853
XW-2F
1 40910U 15049M   19308.75048128  .00001095  00000-0  57807-4 0  9995
2 40910  97.4656 310.4662 0016371  68.3695  18.4520 15.17511427228107
XW-2B
1 40911U 15049N   19308.70236256  .00000489  00000-0  28935-4 0  9998
2 40911  97.4723 308.8756 0015619  76.7557  36.0927 15.15936070227965
KAITUO 1B
1 40912U 15049P   19308.76660792  .00001163  00000-0  57302-4 0  9991
2 40912  97.4508 314.3423 0016186  50.9592  35.4133 15.19850385228436
TIANWANG 1C (TW-1C)
1 40926U 15051B   19308.80093932  .00013294  00000-0  17461-3 0  9999
2 40926  97.1190 354.9056 0006646 201.3091 269.0814 15.58610993231801
TIANWANG 1B (TW-1B)
1 40927U 15051C   19308.83410201  .00012180  00000-0  17110-3 0  9999
2 40927  97.1218 354.0211 0006412 214.0294 204.1297 15.56827246231640
